GW4795 Weather Reports


time (UTC)temp
F
wind
direction
speed
knots
gust
knots
rain 1hr
in
rain 24hr
in
rain mn
in
humidity
%
barometer
mb
20260502213503 72 288 3.5 9.6 0.00 0.00 0.00 57 1015.7
20260502213010 72 297 6.1 9.6 0.00 0.00 0.00 57 1015.8
20260502212503 72 299 3.5 9.6 0.00 0.00 0.00 56 1015.8
20260502212004 72 273 5.2 9.6 0.00 0.00 0.00 56 1015.9
20260502211509 73 263 4.3 8.7 0.00 0.00 0.00 56 1015.9
20260502211004 72 249 2.6 7.8 0.00 0.00 0.00 61 1015.9
20260502210503 72 238 2.6 8.7 0.00 0.00 0.00 60 1016.0
20260502210015 72 275 5.2 8.7 0.00 0.00 0.00 58 1016.0
20260502205504 72 261 3.5 8.7 0.00 0.00 0.00 58 1016.1
20260502205007 71 148 3.5 8.7 0.00 0.00 0.00 64 1016.0
20260502204518 71 156 4.3 7.8 0.00 0.00 0.00 61 1016.1
20260502204007 70 258 3.5 8.7 0.00 0.00 0.00 61 1016.1
20260502203507 71 264 4.3 8.7 0.00 0.00 0.00 62 1016.2
20260502203004 70 264 2.6 8.7 0.00 0.00 0.00 64 1016.3
20260502202503 70 236 4.3 8.7 0.00 0.00 0.00 63 1016.3
20260502202003 69 229 3.5 7.0 0.00 0.00 0.00 63 1016.4
20260502201515 70 244 2.6 8.7 0.00 0.00 0.00 65 1016.4
20260502201004 69 256 4.3 8.7 0.00 0.00 0.00 64 1016.5
20260502200504 68 257 3.5 7.8 0.00 0.00 0.00 68 1016.5
20260502200012 68 215 4.3 7.8 0.00 0.00 0.00 68 1016.7
20260502195506 68 214 1.7 6.1 0.00 0.00 0.00 69 1016.7
20260502195007 67 273 2.6 6.1 0.00 0.00 0.00 71 1016.7
20260502194516 67 240 1.7 6.1 0.00 0.00 0.00 68 1016.7
20260502194009 67 246 2.6 7.8 0.00 0.00 0.00 70 1016.7
20260502193507 67 222 3.5 7.8 0.00 0.00 0.00 68 1016.7
20260502193018 67 230 2.6 8.7 0.00 0.00 0.00 68 1016.6
20260502192508 67 300 1.7 8.7 0.00 0.00 0.00 69 1016.7
20260502192007 68 218 2.6 7.0 0.00 0.00 0.00 66 1016.6
20260502191508 68 257 1.7 8.7 0.00 0.00 0.00 68 1016.7
20260502191003 68 275 2.6 8.7 0.00 0.00 0.00 66 1016.7
20260502190503 68 281 3.5 7.0 0.00 0.00 0.00 67 1016.7
20260502190020 68 286 5.2 7.0 0.00 0.00 0.00 73 1016.8
20260502185504 67 274 1.7 7.8 0.00 0.00 0.00 72 1016.9
20260502185006 66 192 2.6 7.8 0.00 0.00 0.00 70 1016.9
20260502184524 66 232 2.6 6.1 0.00 0.00 0.00 71 1017.0
20260502184007 66 211 1.7 5.2 0.00 0.00 0.00 71 1017.1
20260502183508 65 284 2.6 5.2 0.00 0.00 0.00 72 1017.1
20260502183018 65 251 0.9 7.0 0.00 0.00 0.00 74 1017.2
20260502182504 65 329 2.6 7.0 0.00 0.00 0.00 72 1017.3
20260502182007 65 253 1.7 7.0 0.00 0.00 0.00 73 1017.4
20260502181521 64 306 1.7 7.0 0.00 0.00 0.00 74 1017.4
20260502181007 64 313 1.7 6.1 0.00 0.00 0.00 73 1017.4
20260502180503 64 323 2.6 6.1 0.00 0.00 0.00 73 1017.4
20260502170505 58 257 0.9 3.5 0.00 0.00 0.00 82 1017.8
20260502164005 56 308 1.7 3.5 0.00 0.00 0.00 84 1017.7
20260502163505 56 324 1.7 5.2 0.00 0.00 0.00 84 1017.7
20260502163018 56 328 0.9 5.2 0.00 0.00 0.00 84 1017.7
20260502162506 56 323 1.7 3.5 0.00 0.00 0.00 85 1017.7
20260502162009 55 286 1.7 3.5 0.00 0.00 0.00 85 1017.8
20260502161524 55 273 0.9 2.6 0.00 0.00 0.00 86 1017.6
20260502161009 55 234 0.0 3.5 0.00 0.00 0.00 86 1017.7
20260502160511 54 325 1.7 4.3 0.00 0.00 0.00 87 1017.6
20260502152009 52 295 3.5 6.1 0.00 0.00 0.00 89 1017.5
20260502151520 52 294 1.7 6.1 0.00 0.00 0.00 90 1017.6
20260502151007 52 286 1.7 3.5 0.00 0.00 0.00 91 1017.6
20260502150509 51 313 1.7 2.6 0.00 0.00 0.00 91 1017.6
20260502130507 49 287 1.7 2.6 0.00 0.00 0.00 90 1017.4
20260502123504 49 318 0.0 1.7 0.00 0.00 0.00 90 1017.8
20260502123008 49 313 0.0 1.7 0.00 0.00 0.00 90 1017.8
20260502122504 49 301 0.9 1.7 0.00 0.00 0.00 90 1017.8
20260502122004 49 22 0.0 1.7 0.00 0.00 0.00 89 1017.9
20260502121515 49 44 0.0 1.7 0.00 0.00 0.00 89 1017.8
20260502121006 49 44 0.0 1.7 0.00 0.00 0.00 89 1017.8
20260502120508 49 44 0.0 1.7 0.00 0.00 0.00 89 1017.8
20260502115508 49 163 0.0 1.7 0.00 0.00 0.00 89 1017.9
20260502115008 49 163 0.0 1.7 0.00 0.00 0.00 89 1017.9
20260502114522 49 163 0.0 1.7 0.00 0.00 0.00 89 1017.9
20260502114004 49 163 0.0 1.7 0.00 0.00 0.00 89 1017.8
20260502113505 49 163 0.0 1.7 0.00 0.00 0.00 89 1017.7
20260502113008 49 163 0.0 1.7 0.00 0.00 0.00 89 1017.5
20260502112502 49 163 0.0 1.7 0.00 0.00 0.00 89 1017.4
20260502112002 50 189 0.0 1.7 0.00 0.00 0.00 88 1017.4
20260502111510 50 252 0.0 1.7 0.00 0.00 0.00 88 1017.2
20260502111003 50 252 0.0 1.7 0.00 0.00 0.00 88 1017.2
20260502110507 50 325 0.0 1.7 0.00 0.00 0.00 88 1017.2
20260502110017 50 325 0.0 1.7 0.00 0.00 0.00 88 1017.1
20260502105508 50 329 0.0 1.7 0.00 0.00 0.00 88 1017.1
20260502105007 50 325 0.0 1.7 0.00 0.00 0.00 87 1017.2
20260502104521 50 325 0.0 1.7 0.00 0.00 0.00 87 1017.1
20260502104008 50 325 0.0 0.9 0.00 0.00 0.00 87 1017.1
20260502103508 50 345 0.0 0.9 0.00 0.00 0.00 87 1017.2
20260502103026 50 335 0.9 1.7 0.00 0.00 0.00 87 1017.2
20260502102504 50 331 0.0 1.7 0.00 0.00 0.00 87 1017.2
20260502102006 50 317 0.0 1.7 0.00 0.00 0.00 87 1017.2
20260502101507 50 315 0.9 1.7 0.00 0.00 0.00 87 1017.2
20260502101004 51 334 0.9 1.7 0.00 0.00 0.00 87 1017.3
20260502100504 51 312 0.9 0.9 0.00 0.00 0.00 86 1017.3
20260502091510 52 266 0.0 1.7 0.00 0.00 0.00 85 1017.2
20260502091006 52 266 0.0 1.7 0.00 0.00 0.00 85 1017.1
20260502090507 52 266 0.0 1.7 0.00 0.00 0.00 85 1017.2
20260502071522 53 108 0.0 1.7 0.00 0.00 0.00 81 1017.2
20260502071010 53 153 0.0 1.7 0.00 0.00 0.00 80 1017.2
20260502070512 53 153 0.0 1.7 0.00 0.00 0.00 80 1017.2
20260502070026 53 153 0.0 1.7 0.00 0.00 0.00 80 1017.1
20260502065513 53 94 0.0 1.7 0.00 0.00 0.00 80 1017.1
20260502065011 54 94 0.0 1.7 0.00 0.00 0.00 80 1017.0
20260502064528 54 104 0.0 1.7 0.00 0.00 0.00 80 1016.9
20260502064004 54 104 0.0 1.7 0.00 0.00 0.00 80 1017.0
20260502063507 54 84 0.9 1.7 0.00 0.00 0.00 79 1017.1
20260502063022 54 90 0.0 1.7 0.00 0.00 0.00 79 1017.0
20260502062511 54 34 0.0 1.7 0.00 0.00 0.00 78 1016.9
20260502062010 54 34 0.0 1.7 0.00 0.00 0.00 78 1016.8
20260502061522 54 28 0.0 1.7 0.00 0.00 0.00 76 1016.8
20260502061009 54 28 0.0 1.7 0.00 0.00 0.00 75 1016.8
20260502060510 55 5 0.0 1.7 0.00 0.00 0.00 76 1016.8
20260502060026 55 5 0.0 1.7 0.00 0.00 0.00 77 1016.8
20260502055507 55 5 0.0 1.7 0.00 0.00 0.00 77 1016.7
20260502055009 55 5 0.0 1.7 0.00 0.00 0.00 76 1016.8
20260502054529 55 5 0.0 1.7 0.00 0.00 0.00 77 1016.7
20260502054007 55 30 0.0 1.7 0.00 0.00 0.00 77 1016.8
20260502053510 55 32 0.0 1.7 0.00 0.00 0.00 76 1016.8
20260502053015 55 32 0.0 1.7 0.00 0.00 0.00 76 1016.7
20260502052508 55 28 0.0 1.7 0.00 0.00 0.00 75 1016.7
20260502052009 55 338 0.0 1.7 0.00 0.00 0.00 75 1016.6
20260502051527 55 288 0.9 1.7 0.00 0.00 0.00 75 1016.6
20260502051003 55 296 0.0 2.6 0.00 0.00 0.00 75 1016.6
20260502050503 56 288 0.0 2.6 0.00 0.00 0.00 76 1016.5
20260502050010 56 360 0.9 1.7 0.00 0.00 0.00 76 1016.4
20260502045504 56 311 0.0 1.7 0.00 0.00 0.00 75 1016.6
20260502045008 56 292 0.0 1.7 0.00 0.00 0.00 74 1016.6
20260502044509 56 292 0.0 1.7 0.00 0.00 0.00 75 1016.5
20260502044007 56 286 0.0 1.7 0.00 0.00 0.00 75 1016.4
20260502043505 56 290 0.9 1.7 0.00 0.00 0.00 75 1016.4
20260502043016 56 298 0.0 1.7 0.00 0.00 0.00 74 1016.5
20260502042509 56 285 0.9 1.7 0.00 0.00 0.00 74 1016.5
20260502042007 57 206 0.0 1.7 0.00 0.00 0.00 74 1016.5
20260502041520 57 198 0.0 1.7 0.00 0.00 0.00 74 1016.5
20260502041007 57 247 0.0 1.7 0.00 0.00 0.00 73 1016.4
20260502040503 57 275 0.9 1.7 0.00 0.00 0.00 74 1016.2
20260502040006 57 251 0.0 1.7 0.00 0.00 0.00 73 1016.2
20260502035503 58 232 0.9 0.9 0.00 0.00 0.00 73 1016.2
20260502035003 58 41 0.0 1.7 0.00 0.00 0.00 72 1016.1
20260502034507 58 126 0.0 1.7 0.00 0.00 0.00 72 1016.2
20260502034005 58 126 0.0 6.1 0.00 0.00 0.00 71 1016.1
20260502033504 58 261 0.9 7.0 0.00 0.00 0.00 72 1015.9
20260502033013 58 321 2.6 7.0 0.00 0.00 0.00 71 1015.7
20260502032504 59 280 2.6 5.2 0.00 0.00 0.00 70 1015.9
20260502032007 59 261 1.7 2.6 0.00 0.00 0.00 69 1016.0
20260502031516 59 262 0.9 1.7 0.00 0.00 0.00 68 1016.1
20260502031005 59 223 0.9 3.5 0.00 0.00 0.00 68 1016.1
20260502030510 59 213 0.9 7.0 0.00 0.00 0.00 67 1015.8
20260502030023 59 302 3.5 8.7 0.00 0.00 0.00 66 1015.6
20260502025508 60 271 3.5 8.7 0.00 0.00 0.00 67 1015.6
20260502025006 60 260 3.5 7.0 0.00 0.00 0.00 67 1015.5
20260502024508 60 271 2.6 6.1 0.00 0.00 0.00 66 1015.5
20260502024004 61 267 1.7 6.1 0.00 0.00 0.00 65 1015.5
20260502023504 61 244 1.7 6.1 0.00 0.00 0.00 65 1015.5
20260502023009 61 211 2.6 6.1 0.00 0.00 0.00 67 1015.4
20260502022507 62 228 0.0 6.1 0.00 0.00 0.00 67 1015.3
20260502022008 62 263 3.5 7.8 0.00 0.00 0.00 67 1015.2
20260502021516 62 226 3.5 7.8 0.00 0.00 0.00 67 1015.2
20260502021007 62 267 3.5 7.8 0.00 0.00 0.00 66 1015.1
20260502020506 63 304 1.7 10.4 0.00 0.00 0.00 66 1015.0
20260502020020 63 277 3.5 10.4 0.00 0.00 0.00 65 1015.0
20260502015508 63 323 2.6 7.8 0.00 0.00 0.00 64 1015.0
20260502015010 63 254 3.5 9.6 0.00 0.00 0.00 65 1015.0
20260502014539 64 252 4.3 9.6 0.00 0.00 0.00 63 1015.0
20260502014008 64 292 4.3 8.7 0.00 0.00 0.00 63 1015.0
20260502013504 64 247 2.6 8.7 0.00 0.00 0.00 63 1015.0
20260502013010 64 289 4.3 8.7 0.00 0.00 0.00 64 1015.0
20260502012504 65 213 3.5 9.6 0.00 0.00 0.00 63 1015.1
20260502012006 65 279 2.6 9.6 0.00 0.00 0.00 62 1015.0
20260502011513 65 285 4.3 10.4 0.00 0.00 0.00 63 1015.0
20260502011007 65 291 5.2 10.4 0.00 0.00 0.00 63 1015.0
20260502010506 65 269 4.3 9.6 0.00 0.00 0.00 63 1015.0
20260502010018 66 227 3.5 11.3 0.00 0.00 0.00 63 1015.0
20260502005507 66 259 6.1 11.3 0.00 0.00 0.00 62 1015.0
20260502005008 66 285 3.5 9.6 0.00 0.00 0.00 63 1014.9
20260502004524 66 252 4.3 11.3 0.00 0.00 0.00 63 1015.0
20260502004008 66 246 5.2 10.4 0.00 0.00 0.00 64 1014.9
20260502003510 66 271 3.5 9.6 0.00 0.00 0.00 63 1014.9
20260502003025 66 254 4.3 9.6 0.00 0.00 0.00 63 1014.9
20260502002503 66 228 5.2 9.6 0.00 0.00 0.00 62 1014.9
20260502002004 66 218 4.3 11.3 0.00 0.00 0.00 63 1014.7
20260502001522 66 278 4.3 9.6 0.00 0.00 0.00 62 1014.8
20260502001003 67 284 2.6 8.7 0.00 0.00 0.00 62 1014.7
20260502000508 66 274 4.3 10.4 0.00 0.00 0.00 63 1014.8
20260502000018 67 250 3.5 10.4 0.00 0.00 0.00 62 1014.9
20260501235507 67 272 4.3 10.4 0.00 0.00 0.00 62 1014.8
20260501235007 67 215 4.3 8.7 0.00 0.00 0.00 62 1014.8
20260501234520 67 261 3.5 8.7 0.00 0.00 0.00 60 1014.8
20260501234008 68 274 2.6 12.2 0.00 0.00 0.00 60 1014.9
20260501233508 69 198 5.2 12.2 0.00 0.00 0.00 57 1015.0
20260501233024 69 290 3.5 8.7 0.00 0.00 0.00 57 1015.0
20260501232511 69 256 5.2 8.7 0.00 0.00 0.00 58 1015.1
20260501232011 70 265 2.6 7.0 0.00 0.00 0.00 59 1015.1
20260501231527 70 233 3.5 7.0 0.00 0.00 0.00 57 1015.2
20260501231005 70 267 3.5 8.7 0.00 0.00 0.00 57 1015.2
20260501230503 70 252 4.3 8.7 0.00 0.00 0.00 56 1015.3
20260501230016 71 286 4.3 9.6 0.00 0.00 0.00 56 1015.3
20260501225508 71 271 5.2 9.6 0.00 0.00 0.00 56 1015.4
20260501225008 71 301 2.6 9.6 0.00 0.00 0.00 55 1015.4
20260501224520 72 304 4.3 9.6 0.00 0.00 0.00 54 1015.5
20260501224007 72 317 3.5 8.7 0.00 0.00 0.00 55 1015.6
20260501223507 72 288 2.6 9.6 0.00 0.00 0.00 57 1015.7
20260501223024 72 250 3.5 11.3 0.00 0.00 0.00 56 1015.6
20260501222506 72 282 3.5 11.3 0.00 0.00 0.00 56 1015.7
20260501222013 73 232 2.6 7.8 0.00 0.00 0.00 52 1015.7
20260501221527 73 263 4.3 7.8 0.00 0.00 0.00 53 1015.8
20260501221009 73 232 3.5 10.4 0.00 0.00 0.00 54 1015.8
20260501220511 72 218 5.2 10.4 0.00 0.00 0.00 54 1015.9
20260501220014 72 238 1.7 9.6 0.00 0.00 0.00 54 1015.8
20260501215506 72 312 2.6 7.8 0.00 0.00 0.00 56 1015.8
20260501215006 71 257 4.3 8.7 0.00 0.00 0.00 52 1015.9
20260501214518 72 213 4.3 8.7 0.00 0.00 0.00 56 1015.9
20260501214006 72 281 3.5 8.7 0.00 0.00 0.00 52 1015.8